Tracking 29892 objects as of 21-Nov-2024
HD Live streaming from Space Station
objects crossing your sky now

STARLINK-30554

Track STARLINK-30554 now!
10-day predictions
STARLINK-30554 is classified as:


NORAD ID: 58048
Int'l Code: 2023-156W
Perigee: 557.7 km
Apogee: 560.0 km
Inclination: 53.2 °
Period: 95.7 minutes
Semi major axis: 6929 km
RCS: Unknown
Launch date: October 9, 2023
Source: United States (US)
Launch site: AIR FORCE WESTERN TEST RANGE (AFWTR)
Your satellite tracking list
Your tracking list is empty




NASA's NSSDC Master Catalog

Two Line Element Set (TLE):
1 58048U 23156W   24325.60845905  .00000169  00000-0  31205-4 0  9996
2 58048  53.1594 168.6309 0001643  90.5729 269.5449 15.04925725 62998
Source of the keplerian elements: AFSPC